Location: Croisilles
(50.1998°N, 2.8793°E)
Time: 20:56:33
(UTC+00:00)

NOSS 3-1 (C) - Pass Details

Date: 21 January 2021
Orbit: 723 x 1485 km, 63.3° (Epoch: 02 March)

Event Time Altitude Azimuth Distance (km) Brightness Sun altitude
Rises 18:36:30 0° 316° (NW) 3,841 7.2 -20.8°
Reaches altitude 10° 18:38:57 10° 317° (NW) 2,986 6.5 -21.2°
Maximum altitude 18:46:15 84° 45° (NE) 1,280 4.0 -22.3°
Enters shadow 18:52:05 23° 134° (SE) 2,574 5.3 -23.3°
